Time,TemperatureF,DewpointF,PressureIn,WindDirection,WindDirectionDegrees,WindSpeedMPH,WindSpeedGustMPH,Humidity,HourlyPrecipIn,Conditions,Clouds,dailyrainin,SoftwareType,DateUTC
2013-01-21 00:02:00,21.5,11.2,30.06,WSW,243,0.0,1.0,64,0.00,,CLR,0.00,VWS V13.01,2013-01-21 05:02:00,
2013-01-21 00:03:00,21.3,11.4,30.05,WSW,243,0.0,0.0,65,0.00,,CLR,0.00,VWS V13.01,2013-01-21 05:03:00,
2013-01-21 00:08:00,21.1,11.9,30.06,WSW,243,0.0,0.0,67,0.00,,CLR,0.00,VWS V13.01,2013-01-21 05:08:00,
2013-01-21 00:13:00,20.9,12.0,30.06,WSW,243,0.0,0.0,68,0.00,,CLR,0.00,VWS V13.01,2013-01-21 05:13:00,
2013-01-21 00:18:00,20.7,12.1,30.06,WSW,243,0.0,0.0,69,0.00,,CLR,0.00,VWS V13.01,2013-01-21 05:18:00,
2013-01-21 00:23:00,20.6,12.4,30.06,WSW,243,0.0,0.0,70,0.00,,CLR,0.00,VWS V13.01,2013-01-21 05:23:00,
2013-01-21 00:28:00,20.5,12.3,30.06,WSW,243,0.0,3.0,70,0.00,,CLR,0.00,VWS V13.01,2013-01-21 05:28:00,
2013-01-21 00:33:00,20.4,12.5,30.05,WSW,243,0.0,0.0,71,0.00,,CLR,0.00,VWS V13.01,2013-01-21 05:33:00,
2013-01-21 00:39:00,20.3,12.4,30.05,WSW,243,0.0,0.0,71,0.00,,CLR,0.00,VWS V13.01,2013-01-21 05:39:00,
2013-01-21 00:44:00,20.0,12.4,30.06,WSW,243,1.0,1.0,72,0.00,,CLR,0.00,VWS V13.01,2013-01-21 05:44:00,
2013-01-21 00:49:00,20.0,12.4,30.05,WSW,243,0.0,2.0,72,0.00,,CLR,0.00,VWS V13.01,2013-01-21 05:49:00,
2013-01-21 00:54:00,20.1,12.2,30.05,WSW,243,0.0,2.0,71,0.00,,CLR,0.00,VWS V13.01,2013-01-21 05:54:00,
2013-01-21 00:59:00,20.1,12.2,30.05,WSW,243,0.0,2.0,71,0.00,,CLR,0.00,VWS V13.01,2013-01-21 05:59:00,
2013-01-21 01:04:00,20.2,12.0,30.05,WSW,243,0.0,2.0,70,0.00,,CLR,0.00,VWS V13.01,2013-01-21 06:04:00,
2013-01-21 01:09:00,20.3,11.8,30.05,WSW,243,0.0,2.0,69,0.00,,CLR,0.00,VWS V13.01,2013-01-21 06:09:00,
2013-01-21 01:14:00,20.2,11.7,30.05,WSW,242,1.0,2.0,69,0.00,,CLR,0.00,VWS V13.01,2013-01-21 06:14:00,
2013-01-21 01:19:00,20.2,11.4,30.06,WSW,243,0.0,2.0,68,0.00,,CLR,0.00,VWS V13.01,2013-01-21 06:19:00,
2013-01-21 01:24:00,20.1,11.2,30.06,WSW,243,0.0,2.0,68,0.00,,CLR,0.00,VWS V13.01,2013-01-21 06:24:00,
2013-01-21 01:29:00,19.9,11.1,30.06,WSW,243,0.0,2.0,68,0.00,,CLR,0.00,VWS V13.01,2013-01-21 06:29:00,
2013-01-21 01:34:00,19.7,11.2,30.06,WSW,243,0.0,0.0,69,0.00,,CLR,0.00,VWS V13.01,2013-01-21 06:34:00,
2013-01-21 01:39:00,19.6,11.1,30.06,WSW,243,0.0,0.0,69,0.00,,CLR,0.00,VWS V13.01,2013-01-21 06:39:00,
2013-01-21 01:44:00,19.6,11.7,30.06,WSW,243,0.0,0.0,71,0.00,,CLR,0.00,VWS V13.01,2013-01-21 06:44:00,
2013-01-21 01:49:00,19.6,12.1,30.06,WSW,243,0.0,1.0,72,0.00,,CLR,0.00,VWS V13.01,2013-01-21 06:49:00,
2013-01-21 01:54:00,19.6,12.4,30.06,WSW,243,0.0,1.0,73,0.00,,CLR,0.00,VWS V13.01,2013-01-21 06:54:00,
2013-01-21 01:59:00,19.7,12.1,30.06,WSW,243,0.0,2.0,72,0.00,,CLR,0.00,VWS V13.01,2013-01-21 06:59:00,
2013-01-21 02:04:00,19.8,11.9,30.06,WSW,243,0.0,2.0,71,0.00,,CLR,0.00,VWS V13.01,2013-01-21 07:04:00,
2013-01-21 02:09:00,19.8,11.9,30.06,WSW,243,0.0,2.0,71,0.00,,CLR,0.00,VWS V13.01,2013-01-21 07:09:00,
2013-01-21 02:14:00,19.9,12.0,30.06,WSW,243,0.0,2.0,71,0.00,,CLR,0.00,VWS V13.01,2013-01-21 07:14:00,
2013-01-21 02:19:00,19.9,11.7,30.06,WSW,243,0.0,2.0,70,0.00,,CLR,0.00,VWS V13.01,2013-01-21 07:19:00,
2013-01-21 02:24:00,19.9,11.7,30.06,WSW,243,0.0,2.0,70,0.00,,CLR,0.00,VWS V13.01,2013-01-21 07:24:00,
2013-01-21 02:29:00,20.0,11.5,30.07,WSW,243,0.0,2.0,69,0.00,,CLR,0.00,VWS V13.01,2013-01-21 07:29:00,
2013-01-21 02:34:00,20.3,12.4,30.06,WSW,243,0.0,1.0,71,0.00,,CLR,0.00,VWS V13.01,2013-01-21 07:34:00,
2013-01-21 02:39:00,20.5,12.3,30.07,WSW,243,0.0,1.0,70,0.00,,CLR,0.00,VWS V13.01,2013-01-21 07:39:00,
2013-01-21 02:44:00,20.8,11.9,30.07,WSW,243,0.0,2.0,68,0.00,,CLR,0.00,VWS V13.01,2013-01-21 07:44:00,
2013-01-21 02:49:00,21.1,11.5,30.07,SW,222,1.0,3.0,66,0.00,,CLR,0.00,VWS V13.01,2013-01-21 07:49:00,
2013-01-21 02:54:00,21.3,11.4,30.07,South,191,1.0,4.0,65,0.00,,CLR,0.00,VWS V13.01,2013-01-21 07:54:00,
2013-01-21 02:59:00,21.5,11.9,30.07,SSW,193,1.0,4.0,66,0.00,,CLR,0.00,VWS V13.01,2013-01-21 07:59:00,
2013-01-21 03:04:00,21.7,12.1,30.07,SSW,194,0.0,2.0,66,0.00,,CLR,0.00,VWS V13.01,2013-01-21 08:04:00,
2013-01-21 03:09:00,21.9,12.0,30.07,SW,228,3.0,5.0,65,0.00,,CLR,0.00,VWS V13.01,2013-01-21 08:09:00,
2013-01-21 03:14:00,22.0,12.1,30.07,SSW,210,1.0,5.0,65,0.00,,CLR,0.00,VWS V13.01,2013-01-21 08:14:00,
2013-01-21 03:19:00,22.1,12.1,30.07,SSW,192,0.0,5.0,65,0.00,,CLR,0.00,VWS V13.01,2013-01-21 08:19:00,
2013-01-21 03:24:00,22.2,12.2,30.07,SSW,195,1.0,5.0,65,0.00,,CLR,0.00,VWS V13.01,2013-01-21 08:24:00,
2013-01-21 03:29:00,22.3,12.3,30.06,SW,220,0.0,5.0,65,0.00,,CLR,0.00,VWS V13.01,2013-01-21 08:29:00,
2013-01-21 03:34:00,22.4,12.1,30.06,SW,221,3.0,3.0,64,0.00,,CLR,0.00,VWS V13.01,2013-01-21 08:34:00,
2013-01-21 03:39:00,22.4,12.1,30.06,SSW,201,2.0,5.0,64,0.00,,CLR,0.00,VWS V13.01,2013-01-21 08:39:00,
2013-01-21 03:44:00,22.4,12.1,30.06,SSW,204,0.0,5.0,64,0.00,,CLR,0.00,VWS V13.01,2013-01-21 08:44:00,
2013-01-21 03:49:00,22.4,12.1,30.06,SSW,209,1.0,5.0,64,0.00,,CLR,0.00,VWS V13.01,2013-01-21 08:49:00,
2013-01-21 03:54:00,22.4,12.1,30.06,SSW,207,4.0,5.0,64,0.00,,CLR,0.00,VWS V13.01,2013-01-21 08:54:00,
2013-01-21 03:59:00,22.5,12.2,30.06,SSW,192,1.0,5.0,64,0.00,,CLR,0.00,VWS V13.01,2013-01-21 08:59:00,
2013-01-21 04:04:00,22.4,12.1,30.06,SW,221,0.0,4.0,64,0.00,,CLR,0.00,VWS V13.01,2013-01-21 09:04:00,
2013-01-21 04:09:00,22.5,12.2,30.06,SW,227,2.0,4.0,64,0.00,,CLR,0.00,VWS V13.01,2013-01-21 09:09:00,
2013-01-21 04:14:00,22.4,12.4,30.05,WSW,238,0.0,5.0,65,0.00,,CLR,0.00,VWS V13.01,2013-01-21 09:14:00,
2013-01-21 04:19:00,22.4,12.4,30.05,WSW,238,0.0,5.0,65,0.00,,CLR,0.00,VWS V13.01,2013-01-21 09:19:00,
2013-01-21 04:24:00,22.3,12.3,30.05,WSW,238,1.0,5.0,65,0.00,,CLR,0.00,VWS V13.01,2013-01-21 09:24:00,
2013-01-21 04:29:00,22.2,12.2,30.04,SSW,204,0.0,5.0,65,0.00,,CLR,0.00,VWS V13.01,2013-01-21 09:29:00,
2013-01-21 04:34:00,22.1,12.1,30.05,SSW,204,0.0,3.0,65,0.00,,CLR,0.00,VWS V13.01,2013-01-21 09:34:00,
2013-01-21 04:39:00,22.0,11.7,30.04,SSW,196,0.0,3.0,64,0.00,,CLR,0.00,VWS V13.01,2013-01-21 09:39:00,
2013-01-21 04:44:00,21.9,11.6,30.04,SSW,213,0.0,4.0,64,0.00,,CLR,0.00,VWS V13.01,2013-01-21 09:44:00,
2013-01-21 04:49:00,21.8,11.9,30.04,SW,214,0.0,4.0,65,0.00,,CLR,0.00,VWS V13.01,2013-01-21 09:49:00,
2013-01-21 04:54:00,21.7,11.8,30.04,SSW,203,0.0,4.0,65,0.00,,CLR,0.00,VWS V13.01,2013-01-21 09:54:00,
2013-01-21 04:59:00,21.5,11.6,30.04,SSW,203,0.0,4.0,65,0.00,,CLR,0.00,VWS V13.01,2013-01-21 09:59:00,
2013-01-21 05:04:00,21.4,11.5,30.04,SW,230,0.0,3.0,65,0.00,,CLR,0.00,VWS V13.01,2013-01-21 10:04:00,
2013-01-21 05:09:00,21.3,11.4,30.04,SW,230,0.0,3.0,65,0.00,,CLR,0.00,VWS V13.01,2013-01-21 10:09:00,
2013-01-21 05:14:00,21.2,11.3,30.04,SSW,198,1.0,5.0,65,0.00,,CLR,0.00,VWS V13.01,2013-01-21 10:14:00,
2013-01-21 05:19:00,21.1,11.2,30.04,SSW,213,2.0,5.0,65,0.00,,CLR,0.00,VWS V13.01,2013-01-21 10:19:00,
2013-01-21 05:24:00,21.1,11.5,30.04,SSW,204,0.0,5.0,66,0.00,,CLR,0.00,VWS V13.01,2013-01-21 10:24:00,
2013-01-21 05:29:00,21.1,11.5,30.04,SW,229,1.0,5.0,66,0.00,,CLR,0.00,VWS V13.01,2013-01-21 10:29:00,
2013-01-21 05:34:00,21.1,11.5,30.04,SSW,192,0.0,4.0,66,0.00,,CLR,0.00,VWS V13.01,2013-01-21 10:34:00,
2013-01-21 05:39:00,21.2,11.6,30.03,SSW,194,0.0,4.0,66,0.00,,CLR,0.00,VWS V13.01,2013-01-21 10:39:00,
2013-01-21 05:44:00,21.3,11.4,30.03,SSW,210,1.0,4.0,65,0.00,,CLR,0.00,VWS V13.01,2013-01-21 10:44:00,
2013-01-21 05:49:00,21.6,11.3,30.03,SW,219,2.0,6.0,64,0.00,,CLR,0.00,VWS V13.01,2013-01-21 10:49:00,
2013-01-21 05:54:00,21.7,11.4,30.03,South,189,0.0,6.0,64,0.00,,CLR,0.00,VWS V13.01,2013-01-21 10:54:00,
2013-01-21 05:59:00,21.9,12.0,30.03,SW,214,0.0,6.0,65,0.00,,CLR,0.00,VWS V13.01,2013-01-21 10:59:00,
2013-01-21 06:04:00,22.1,11.8,30.03,SSW,210,0.0,4.0,64,0.00,,CLR,0.00,VWS V13.01,2013-01-21 11:04:00,
2013-01-21 06:09:00,22.1,11.8,30.03,South,175,0.0,4.0,64,0.00,,CLR,0.00,VWS V13.01,2013-01-21 11:09:00,
2013-01-21 06:14:00,22.2,11.9,30.03,South,173,0.0,5.0,64,0.00,,CLR,0.00,VWS V13.01,2013-01-21 11:14:00,
2013-01-21 06:19:00,22.3,12.0,30.03,SSW,209,0.0,5.0,64,0.00,,CLR,0.00,VWS V13.01,2013-01-21 11:19:00,
2013-01-21 06:24:00,22.4,12.1,30.03,SSW,208,0.0,5.0,64,0.00,,CLR,0.00,VWS V13.01,2013-01-21 11:24:00,
2013-01-21 06:29:00,22.4,12.1,30.03,SSW,203,2.0,5.0,64,0.00,,CLR,0.00,VWS V13.01,2013-01-21 11:29:00,
2013-01-21 06:34:00,22.5,12.2,30.03,SSW,193,0.0,4.0,64,0.00,,CLR,0.00,VWS V13.01,2013-01-21 11:34:00,
2013-01-21 06:39:00,22.6,12.3,30.03,SSW,203,0.0,4.0,64,0.00,,CLR,0.00,VWS V13.01,2013-01-21 11:39:00,
2013-01-21 06:44:00,22.6,12.3,30.03,SW,214,1.0,4.0,64,0.00,,CLR,0.00,VWS V13.01,2013-01-21 11:44:00,
2013-01-21 06:49:00,22.6,12.3,30.03,SSW,206,0.0,5.0,64,0.00,,CLR,0.00,VWS V13.01,2013-01-21 11:49:00,
2013-01-21 06:54:00,22.6,12.3,30.03,SSW,197,2.0,5.0,64,0.00,,CLR,0.00,VWS V13.01,2013-01-21 11:54:00,
2013-01-21 06:59:00,22.7,12.4,30.03,SW,220,0.0,5.0,64,0.00,,CLR,0.00,VWS V13.01,2013-01-21 11:59:00,
2013-01-21 07:04:00,22.7,12.4,30.03,SSW,200,0.0,4.0,64,0.00,,OVC085,0.00,VWS V13.01,2013-01-21 12:04:00,
2013-01-21 07:09:00,22.8,12.5,30.03,SSW,195,1.0,5.0,64,0.00,,OVC085,0.00,VWS V13.01,2013-01-21 12:09:00,
2013-01-21 07:14:00,22.8,12.5,30.03,SSW,203,0.0,5.0,64,0.00,,OVC085,0.00,VWS V13.01,2013-01-21 12:14:00,
2013-01-21 07:19:00,22.8,12.5,30.03,SW,223,2.0,5.0,64,0.00,,OVC085,0.00,VWS V13.01,2013-01-21 12:19:00,
2013-01-21 07:24:00,22.9,12.2,30.03,SSW,210,3.0,6.0,63,0.00,,OVC085,0.00,VWS V13.01,2013-01-21 12:24:00,
2013-01-21 07:29:00,22.9,12.6,30.02,SSW,212,0.0,6.0,64,0.00,,OVC085,0.00,VWS V13.01,2013-01-21 12:29:00,
2013-01-21 07:34:00,22.9,12.6,30.02,SSW,198,3.0,4.0,64,0.00,,OVC085,0.00,VWS V13.01,2013-01-21 12:34:00,
2013-01-21 07:39:00,23.0,12.6,30.02,SSW,195,3.0,4.0,64,0.00,,OVC085,0.00,VWS V13.01,2013-01-21 12:39:00,
2013-01-21 07:44:00,23.0,12.6,30.02,SSW,205,0.0,4.0,64,0.00,,OVC085,0.00,VWS V13.01,2013-01-21 12:44:00,
2013-01-21 07:49:00,23.0,12.6,30.03,SSW,196,0.0,4.0,64,0.00,,OVC085,0.00,VWS V13.01,2013-01-21 12:49:00,
2013-01-21 07:54:00,23.1,12.8,30.03,SW,218,1.0,4.0,64,0.00,,OVC085,0.00,VWS V13.01,2013-01-21 12:54:00,
2013-01-21 07:59:00,23.1,12.8,30.02,SSW,210,0.0,4.0,64,0.00,,OVC085,0.00,VWS V13.01,2013-01-21 12:59:00,
2013-01-21 08:04:00,23.2,12.8,30.02,SSW,210,1.0,4.0,64,0.00,,OVC085,0.00,VWS V13.01,2013-01-21 13:04:00,
2013-01-21 08:09:00,23.3,12.9,30.02,SSW,198,3.0,6.0,64,0.00,,OVC085,0.00,VWS V13.01,2013-01-21 13:09:00,
2013-01-21 08:14:00,23.4,12.7,30.02,SSW,208,2.0,6.0,63,0.00,,OVC085,0.00,VWS V13.01,2013-01-21 13:14:00,
2013-01-21 08:19:00,23.5,12.8,30.02,SW,215,2.0,7.0,63,0.00,,OVC085,0.00,VWS V13.01,2013-01-21 13:19:00,
2013-01-21 08:24:00,23.6,12.5,30.02,SW,227,2.0,7.0,62,0.00,,OVC085,0.00,VWS V13.01,2013-01-21 13:24:00,
2013-01-21 08:29:00,23.6,12.9,30.02,SSW,210,2.0,7.0,63,0.00,,OVC085,0.00,VWS V13.01,2013-01-21 13:29:00,
2013-01-21 08:34:00,23.8,12.7,30.02,SSW,210,3.0,8.0,62,0.00,,OVC085,0.00,VWS V13.01,2013-01-21 13:34:00,
2013-01-21 08:39:00,23.9,13.1,30.02,SSW,198,3.0,8.0,63,0.00,,OVC085,0.00,VWS V13.01,2013-01-21 13:39:00,
2013-01-21 08:44:00,24.1,13.0,30.03,SW,219,4.0,8.0,62,0.00,,OVC085,0.00,VWS V13.01,2013-01-21 13:44:00,
2013-01-21 08:49:00,24.3,13.2,30.02,SW,216,0.0,8.0,62,0.00,,OVC085,0.00,VWS V13.01,2013-01-21 13:49:00,
2013-01-21 08:54:00,24.4,13.3,30.02,SW,215,3.0,8.0,62,0.00,,OVC085,0.00,VWS V13.01,2013-01-21 13:54:00,
2013-01-21 08:59:00,24.6,13.1,30.02,SSW,194,4.0,8.0,61,0.00,,OVC085,0.00,VWS V13.01,2013-01-21 13:59:00,
2013-01-21 09:04:00,24.7,13.2,30.02,South,187,3.0,5.0,61,0.00,,OVC090,0.00,VWS V13.01,2013-01-21 14:04:00,
2013-01-21 09:09:00,24.9,13.0,30.02,SSW,203,1.0,6.0,60,0.00,,OVC090,0.00,VWS V13.01,2013-01-21 14:09:00,
2013-01-21 09:14:00,25.0,13.1,30.02,SSW,208,1.0,6.0,60,0.00,,OVC090,0.00,VWS V13.01,2013-01-21 14:14:00,
2013-01-21 09:19:00,25.1,13.6,30.02,SSW,201,2.0,6.0,61,0.00,,OVC090,0.00,VWS V13.01,2013-01-21 14:19:00,
2013-01-21 09:24:00,25.4,13.5,30.02,South,186,1.0,6.0,60,0.00,,OVC090,0.00,VWS V13.01,2013-01-21 14:24:00,
2013-01-21 09:29:00,25.6,13.3,30.02,SSW,196,1.0,6.0,59,0.00,,OVC090,0.00,VWS V13.01,2013-01-21 14:29:00,
2013-01-21 09:34:00,25.9,13.2,30.02,SSW,194,8.0,10.0,58,0.00,,OVC090,0.00,VWS V13.01,2013-01-21 14:34:00,
2013-01-21 09:39:00,26.0,12.9,30.02,SSW,211,3.0,10.0,57,0.00,,OVC090,0.00,VWS V13.01,2013-01-21 14:39:00,
2013-01-21 09:44:00,26.2,13.4,30.02,South,173,4.0,10.0,58,0.00,,OVC090,0.00,VWS V13.01,2013-01-21 14:44:00,
2013-01-21 09:49:00,26.5,13.3,30.01,SSW,200,3.0,10.0,57,0.00,,OVC090,0.00,VWS V13.01,2013-01-21 14:49:00,
2013-01-21 09:54:00,26.6,13.0,30.02,SSW,193,8.0,10.0,56,0.00,,OVC090,0.00,VWS V13.01,2013-01-21 14:54:00,
2013-01-21 09:59:00,26.7,13.1,30.01,South,189,1.0,10.0,56,0.00,,OVC090,0.00,VWS V13.01,2013-01-21 14:59:00,
2013-01-21 10:04:00,26.8,13.2,30.01,South,171,4.0,9.0,56,0.00,,OVC085,0.00,VWS V13.01,2013-01-21 15:04:00,
2013-01-21 10:10:00,26.9,12.9,30.01,SSW,197,1.0,9.0,55,0.00,,OVC085,0.00,VWS V13.01,2013-01-21 15:10:00,
2013-01-21 10:15:00,26.9,12.9,30.01,South,175,2.0,10.0,55,0.00,,OVC085,0.00,VWS V13.01,2013-01-21 15:15:00,
2013-01-21 10:20:00,27.0,13.0,30.01,South,187,2.0,10.0,55,0.00,,OVC085,0.00,VWS V13.01,2013-01-21 15:20:00,
2013-01-21 10:25:00,27.1,13.1,30.01,SW,215,2.0,10.0,55,0.00,,OVC085,0.00,VWS V13.01,2013-01-21 15:25:00,
2013-01-21 10:30:00,27.1,13.1,30.00,SSW,194,2.0,10.0,55,0.00,,OVC085,0.00,VWS V13.01,2013-01-21 15:30:00,
2013-01-21 10:35:00,27.2,13.2,30.00,South,185,0.0,6.0,55,0.00,,OVC085,0.00,VWS V13.01,2013-01-21 15:35:00,
2013-01-21 10:40:00,27.3,13.3,30.00,WSW,254,1.0,6.0,55,0.00,,OVC085,0.00,VWS V13.01,2013-01-21 15:40:00,
2013-01-21 10:45:00,27.4,13.8,30.00,South,171,0.0,6.0,56,0.00,,OVC085,0.00,VWS V13.01,2013-01-21 15:45:00,
2013-01-21 10:50:00,27.4,13.8,29.99,South,190,3.0,6.0,56,0.00,,OVC085,0.00,VWS V13.01,2013-01-21 15:50:00,
2013-01-21 10:55:00,27.5,13.5,29.99,SSW,199,1.0,6.0,55,0.00,,OVC085,0.00,VWS V13.01,2013-01-21 15:55:00,
2013-01-21 11:00:00,27.5,13.9,29.99,South,185,2.0,6.0,56,0.00,,OVC085,0.00,VWS V13.01,2013-01-21 16:00:00,
2013-01-21 11:05:00,27.6,14.0,29.98,SSW,197,3.0,5.0,56,0.00,,OVC085,0.00,VWS V13.01,2013-01-21 16:05:00,
2013-01-21 11:10:00,27.6,14.4,29.97,SSW,211,2.0,5.0,57,0.00,,OVC085,0.00,VWS V13.01,2013-01-21 16:10:00,
2013-01-21 11:15:00,27.7,14.1,29.98,SW,221,2.0,5.0,56,0.00,,OVC085,0.00,VWS V13.01,2013-01-21 16:15:00,
2013-01-21 11:20:00,27.8,14.6,29.97,West,267,3.0,5.0,57,0.00,,OVC085,0.00,VWS V13.01,2013-01-21 16:20:00,
2013-01-21 11:25:00,27.9,14.6,29.97,South,189,0.0,5.0,57,0.00,,OVC085,0.00,VWS V13.01,2013-01-21 16:25:00,
2013-01-21 11:30:00,27.9,14.6,29.96,SSW,208,5.0,7.0,57,0.00,,OVC085,0.00,VWS V13.01,2013-01-21 16:30:00,
2013-01-21 11:35:00,28.0,14.8,29.96,SSW,204,1.0,6.0,57,0.00,,OVC085,0.00,VWS V13.01,2013-01-21 16:35:00,
2013-01-21 11:40:00,28.2,14.9,29.95,SW,221,0.0,6.0,57,0.00,,OVC085,0.00,VWS V13.01,2013-01-21 16:40:00,
2013-01-21 11:45:00,28.4,15.1,29.95,SSW,195,0.0,7.0,57,0.00,,OVC085,0.00,VWS V13.01,2013-01-21 16:45:00,
2013-01-21 11:50:00,28.6,14.9,29.94,SW,231,4.0,7.0,56,0.00,,OVC085,0.00,VWS V13.01,2013-01-21 16:50:00,
2013-01-21 11:55:00,28.5,15.2,29.94,SW,221,0.0,7.0,57,0.00,,OVC085,0.00,VWS V13.01,2013-01-21 16:55:00,
2013-01-21 12:00:00,28.6,15.3,29.94,West,265,4.0,7.0,57,0.00,,OVC085,0.00,VWS V13.01,2013-01-21 17:00:00,
2013-01-21 12:05:00,28.6,14.9,29.93,SW,224,2.0,6.0,56,0.00,,OVC085,0.00,VWS V13.01,2013-01-21 17:05:00,
2013-01-21 12:10:00,28.5,15.2,29.93,SW,233,4.0,8.0,57,0.00,,OVC085,0.00,VWS V13.01,2013-01-21 17:10:00,
2013-01-21 12:15:00,28.5,15.6,29.93,SSE,167,5.0,8.0,58,0.00,,OVC085,0.00,VWS V13.01,2013-01-21 17:15:00,
2013-01-21 12:20:00,28.6,16.1,29.92,South,190,0.0,8.0,59,0.00,,OVC085,0.00,VWS V13.01,2013-01-21 17:20:00,
2013-01-21 12:25:00,28.5,16.4,29.91,SSW,203,4.0,8.0,60,0.00,,OVC085,0.00,VWS V13.01,2013-01-21 17:25:00,
2013-01-21 12:30:00,28.5,16.0,29.91,SSE,160,1.0,8.0,59,0.00,,OVC085,0.00,VWS V13.01,2013-01-21 17:30:00,
2013-01-21 12:35:00,28.5,16.4,29.91,SSW,211,3.0,8.0,60,0.00,,OVC055,0.00,VWS V13.01,2013-01-21 17:35:00,
2013-01-21 12:40:00,28.4,16.7,29.91,SSE,165,4.0,8.0,61,0.00,,OVC055,0.00,VWS V13.01,2013-01-21 17:40:00,
2013-01-21 12:45:00,28.4,17.1,29.91,SSW,200,5.0,9.0,62,0.00,,OVC055,0.00,VWS V13.01,2013-01-21 17:45:00,
2013-01-21 12:50:00,28.3,17.3,29.90,SSW,205,2.0,9.0,63,0.00,,OVC055,0.00,VWS V13.01,2013-01-21 17:50:00,
2013-01-21 12:55:00,28.3,17.3,29.90,South,173,0.0,9.0,63,0.00,,OVC055,0.00,VWS V13.01,2013-01-21 17:55:00,
2013-01-21 13:00:00,28.4,17.4,29.90,SSW,197,5.0,9.0,63,0.00,,OVC055,0.00,VWS V13.01,2013-01-21 18:00:00,
2013-01-21 13:05:00,28.4,17.8,29.90,SSW,206,5.0,5.0,64,0.00,,OVC055,0.00,VWS V13.01,2013-01-21 18:05:00,
2013-01-21 13:10:00,28.3,18.1,29.90,SW,217,2.0,7.0,65,0.00,,OVC055,0.00,VWS V13.01,2013-01-21 18:10:00,
2013-01-21 13:15:00,28.3,18.4,29.89,South,185,3.0,7.0,66,0.00,,OVC055,0.00,VWS V13.01,2013-01-21 18:15:00,
2013-01-21 13:20:00,28.1,19.3,29.89,South,179,4.0,8.0,69,0.00,,OVC055,0.00,VWS V13.01,2013-01-21 18:20:00,
2013-01-21 13:25:00,28.1,19.3,29.88,SSW,194,0.0,8.0,69,0.00,,OVC055,0.00,VWS V13.01,2013-01-21 18:25:00,
2013-01-21 13:30:00,28.0,19.8,29.88,SW,214,2.0,2.0,71,0.00,,OVC055,0.00,VWS V13.01,2013-01-21 18:30:00,
2013-01-21 13:35:00,27.9,20.1,29.88,South,169,1.0,6.0,72,0.00,,,0.00,VWS V13.01,2013-01-21 18:35:00,
2013-01-21 13:40:00,27.8,20.6,29.88,SW,232,2.0,6.0,74,0.00,,,0.00,VWS V13.01,2013-01-21 18:40:00,
2013-01-21 13:45:00,27.8,20.3,29.88,South,170,0.0,6.0,73,0.00,,,0.00,VWS V13.01,2013-01-21 18:45:00,
2013-01-21 13:50:00,27.7,20.8,29.88,WSW,244,2.0,6.0,75,0.00,,,0.00,VWS V13.01,2013-01-21 18:50:00,
2013-01-21 13:55:00,27.6,20.7,29.88,West,269,1.0,6.0,75,0.00,,,0.00,VWS V13.01,2013-01-21 18:55:00,
2013-01-21 14:00:00,27.6,21.0,29.88,SSW,213,0.0,6.0,76,0.00,,,0.00,VWS V13.01,2013-01-21 19:00:00,
2013-01-21 14:05:00,27.6,20.7,29.88,SSW,205,0.0,8.0,75,0.00,,,0.00,VWS V13.01,2013-01-21 19:05:00,
2013-01-21 14:10:00,27.5,20.6,29.87,SSW,193,0.0,8.0,75,0.00,,,0.00,VWS V13.01,2013-01-21 19:10:00,
2013-01-21 14:15:00,27.5,20.9,29.87,SSW,203,0.0,8.0,76,0.00,,,0.00,VWS V13.01,2013-01-21 19:15:00,
2013-01-21 14:20:00,27.4,20.8,29.87,South,189,0.0,8.0,76,0.00,,,0.00,VWS V13.01,2013-01-21 19:20:00,
2013-01-21 14:25:00,27.5,20.9,29.87,South,189,0.0,8.0,76,0.00,,,0.00,VWS V13.01,2013-01-21 19:25:00,
2013-01-21 14:30:00,27.4,20.8,29.86,South,189,0.0,0.0,76,0.00,,,0.00,VWS V13.01,2013-01-21 19:30:00,
2013-01-21 14:35:00,27.4,20.8,29.86,South,189,0.0,1.0,76,0.00,,,0.00,VWS V13.01,2013-01-21 19:35:00,
2013-01-21 14:40:00,27.4,20.5,29.86,South,189,0.0,1.0,75,0.00,,,0.00,VWS V13.01,2013-01-21 19:40:00,
2013-01-21 14:45:00,27.4,20.5,29.85,SSW,195,1.0,2.0,75,0.00,,,0.00,VWS V13.01,2013-01-21 19:45:00,
2013-01-21 14:50:00,27.4,20.5,29.86,SSW,195,2.0,2.0,75,0.00,,,0.00,VWS V13.01,2013-01-21 19:50:00,
2013-01-21 14:55:00,27.4,20.2,29.85,NW,321,0.0,4.0,74,0.00,,,0.00,VWS V13.01,2013-01-21 19:55:00,
2013-01-21 15:00:00,27.4,20.5,29.85,NW,321,0.0,0.0,75,0.00,,,0.00,VWS V13.01,2013-01-21 20:00:00,
2013-01-21 15:05:00,27.4,20.5,29.85,South,171,2.0,4.0,75,0.00,,,0.00,VWS V13.01,2013-01-21 20:05:00,
2013-01-21 15:10:00,27.4,20.5,29.84,South,171,0.0,4.0,75,0.00,,,0.00,VWS V13.01,2013-01-21 20:10:00,
2013-01-21 15:15:00,27.5,20.6,29.85,South,171,0.0,4.0,75,0.00,,,0.00,VWS V13.01,2013-01-21 20:15:00,
2013-01-21 15:20:00,27.5,20.9,29.85,South,171,0.0,4.0,76,0.00,,,0.00,VWS V13.01,2013-01-21 20:20:00,
2013-01-21 15:25:00,27.5,20.9,29.85,South,170,0.0,4.0,76,0.00,,,0.00,VWS V13.01,2013-01-21 20:25:00,
2013-01-21 15:30:00,27.3,20.8,29.85,South,171,1.0,2.0,76,0.00,,,0.00,VWS V13.01,2013-01-21 20:30:00,
2013-01-21 15:35:00,27.2,21.0,29.84,South,171,0.0,2.0,77,0.00,,,0.00,VWS V13.01,2013-01-21 20:35:00,
2013-01-21 15:40:00,27.1,20.9,29.85,South,171,0.0,2.0,77,0.00,,,0.00,VWS V13.01,2013-01-21 20:40:00,
2013-01-21 15:45:00,27.0,20.8,29.84,South,171,0.0,2.0,77,0.00,,,0.00,VWS V13.01,2013-01-21 20:45:00,
2013-01-21 15:50:00,27.0,21.1,29.84,South,171,0.0,2.0,78,0.00,,,0.00,VWS V13.01,2013-01-21 20:50:00,
2013-01-21 15:55:00,27.0,21.1,29.84,South,171,0.0,2.0,78,0.00,,,0.00,VWS V13.01,2013-01-21 20:55:00,
2013-01-21 16:00:00,26.9,21.0,29.84,South,171,0.0,0.0,78,0.00,,,0.00,VWS V13.01,2013-01-21 21:00:00,
2013-01-21 16:05:00,26.9,21.3,29.85,South,171,0.0,1.0,79,0.00,,,0.00,VWS V13.01,2013-01-21 21:05:00,
2013-01-21 16:10:00,26.9,21.3,29.84,South,171,0.0,2.0,79,0.00,,,0.00,VWS V13.01,2013-01-21 21:10:00,
2013-01-21 16:15:00,26.8,21.5,29.85,South,171,0.0,3.0,80,0.00,,,0.00,VWS V13.01,2013-01-21 21:15:00,
2013-01-21 16:20:00,26.7,21.7,29.85,South,171,0.0,3.0,81,0.00,,,0.00,VWS V13.01,2013-01-21 21:20:00,
2013-01-21 16:25:00,26.7,21.7,29.85,South,171,0.0,3.0,81,0.00,,,0.00,VWS V13.01,2013-01-21 21:25:00,
2013-01-21 16:30:00,26.6,21.9,29.85,South,171,3.0,3.0,82,0.00,,,0.00,VWS V13.01,2013-01-21 21:30:00,
2013-01-21 16:35:00,26.5,22.0,29.85,South,171,0.0,5.0,83,0.00,,,0.00,VWS V13.01,2013-01-21 21:35:00,
2013-01-21 16:40:00,26.4,22.2,29.85,South,171,2.0,5.0,84,0.00,,,0.00,VWS V13.01,2013-01-21 21:40:00,
2013-01-21 16:45:00,26.2,22.3,29.86,SSW,205,0.0,5.0,85,0.00,,,0.00,VWS V13.01,2013-01-21 21:45:00,
2013-01-21 16:50:00,26.1,22.5,29.86,SW,217,0.0,5.0,86,0.00,,,0.00,VWS V13.01,2013-01-21 21:50:00,
2013-01-21 16:55:00,26.0,22.7,29.87,SSW,206,2.0,5.0,87,0.00,,,0.00,VWS V13.01,2013-01-21 21:55:00,
2013-01-21 17:00:00,25.8,22.7,29.87,SSW,203,2.0,2.0,88,0.00,,,0.00,VWS V13.01,2013-01-21 22:00:00,
2013-01-21 17:05:00,25.8,22.7,29.87,SSW,197,1.0,2.0,88,0.00,,,0.00,VWS V13.01,2013-01-21 22:05:00,
2013-01-21 17:10:00,25.7,22.6,29.87,South,184,0.0,3.0,88,0.00,,,0.00,VWS V13.01,2013-01-21 22:10:00,
2013-01-21 17:15:00,25.7,22.9,29.87,SSW,193,0.0,5.0,89,0.00,,,0.00,VWS V13.01,2013-01-21 22:15:00,
2013-01-21 17:20:00,25.6,22.8,29.86,SSW,193,2.0,5.0,89,0.00,,,0.00,VWS V13.01,2013-01-21 22:20:00,
2013-01-21 17:25:00,25.6,22.8,29.87,SSW,199,0.0,5.0,89,0.00,,,0.00,VWS V13.01,2013-01-21 22:25:00,
2013-01-21 17:30:00,25.6,22.8,29.87,SSW,202,0.0,0.0,89,0.00,,,0.00,VWS V13.01,2013-01-21 22:30:00,
2013-01-21 17:35:00,25.5,23.0,29.87,SSW,210,0.0,1.0,90,0.00,,,0.00,VWS V13.01,2013-01-21 22:35:00,
2013-01-21 17:40:00,25.5,23.0,29.87,SSW,198,1.0,4.0,90,0.00,,,0.00,VWS V13.01,2013-01-21 22:40:00,
2013-01-21 17:45:00,25.5,23.0,29.87,SSW,205,0.0,4.0,90,0.00,,,0.00,VWS V13.01,2013-01-21 22:45:00,
2013-01-21 17:50:00,25.5,23.0,29.88,SW,219,0.0,4.0,90,0.00,,,0.00,VWS V13.01,2013-01-21 22:50:00,
2013-01-21 17:55:00,25.5,23.0,29.88,SSW,212,2.0,4.0,90,0.00,,,0.00,VWS V13.01,2013-01-21 22:55:00,
2013-01-21 18:00:00,25.5,23.0,29.88,SSW,212,0.0,0.0,90,0.00,,,0.00,VWS V13.01,2013-01-21 23:00:00,
2013-01-21 18:05:00,25.5,23.2,29.88,SW,214,0.0,1.0,91,0.00,,,0.00,VWS V13.01,2013-01-21 23:05:00,
2013-01-21 18:10:00,25.5,23.2,29.88,SW,214,0.0,1.0,91,0.00,,,0.00,VWS V13.01,2013-01-21 23:10:00,
2013-01-21 18:15:00,25.5,23.2,29.87,SW,214,0.0,2.0,91,0.00,,,0.00,VWS V13.01,2013-01-21 23:15:00,
2013-01-21 18:20:00,25.4,23.1,29.87,SW,214,0.0,2.0,91,0.00,,,0.00,VWS V13.01,2013-01-21 23:20:00,
2013-01-21 18:25:00,25.4,22.9,29.88,SW,214,0.0,2.0,90,0.00,,,0.00,VWS V13.01,2013-01-21 23:25:00,
2013-01-21 18:30:00,25.4,23.1,29.88,SW,217,0.0,1.0,91,0.00,,,0.00,VWS V13.01,2013-01-21 23:30:00,
2013-01-21 18:35:00,25.3,22.8,29.88,SW,217,0.0,2.0,90,0.00,,,0.00,VWS V13.01,2013-01-21 23:35:00,
2013-01-21 18:40:00,25.2,22.7,29.88,SW,217,1.0,2.0,90,0.00,,,0.00,VWS V13.01,2013-01-21 23:40:00,
2013-01-21 18:45:00,25.1,22.6,29.88,SW,216,0.0,2.0,90,0.00,,,0.00,VWS V13.01,2013-01-21 23:45:00,
2013-01-21 18:50:00,25.1,22.6,29.88,WSW,238,0.0,2.0,90,0.00,,,0.00,VWS V13.01,2013-01-21 23:50:00,
2013-01-21 18:55:00,25.1,22.6,29.88,WSW,256,1.0,3.0,90,0.00,,,0.00,VWS V13.01,2013-01-21 23:55:00,
2013-01-21 19:00:00,25.1,22.6,29.89,SW,227,2.0,2.0,90,0.00,,,0.00,VWS V13.01,2013-01-22 00:00:00,
2013-01-21 19:05:00,25.0,21.4,29.89,WSW,241,2.0,7.0,86,0.00,,,0.00,VWS V13.01,2013-01-22 00:05:00,
2013-01-21 19:10:00,24.8,20.4,29.89,WSW,240,3.0,12.0,83,0.00,,,0.00,VWS V13.01,2013-01-22 00:10:00,
2013-01-21 19:15:00,24.7,19.7,29.89,WSW,244,1.0,12.0,81,0.00,,,0.00,VWS V13.01,2013-01-22 00:15:00,
2013-01-21 19:20:00,24.6,18.7,29.89,West,273,4.0,12.0,78,0.00,,,0.00,VWS V13.01,2013-01-22 00:20:00,
2013-01-21 19:25:00,24.5,18.3,29.89,WSW,249,5.0,12.0,77,0.00,,,0.00,VWS V13.01,2013-01-22 00:25:00,
2013-01-21 19:30:00,24.4,17.9,29.89,SSW,213,5.0,5.0,76,0.00,,,0.00,VWS V13.01,2013-01-22 00:30:00,
2013-01-21 19:35:00,24.3,17.8,29.89,SSW,213,0.0,6.0,76,0.00,,OVC049,0.00,VWS V13.01,2013-01-22 00:35:00,
2013-01-21 19:40:00,24.2,17.4,29.89,SW,224,0.0,6.0,75,0.00,,OVC049,0.00,VWS V13.01,2013-01-22 00:40:00,
2013-01-21 19:45:00,24.1,17.3,29.89,SSW,207,0.0,6.0,75,0.00,,OVC049,0.00,VWS V13.01,2013-01-22 00:45:00,
2013-01-21 19:50:00,23.9,17.1,29.89,SW,214,0.0,6.0,75,0.00,,OVC049,0.00,VWS V13.01,2013-01-22 00:50:00,
2013-01-21 19:55:00,23.7,17.0,29.89,SW,214,0.0,6.0,75,0.00,,OVC049,0.00,VWS V13.01,2013-01-22 00:55:00,
2013-01-21 20:00:00,23.5,16.8,29.88,SW,214,0.0,0.0,75,0.00,,OVC049,0.00,VWS V13.01,2013-01-22 01:00:00,
2013-01-21 20:05:00,23.2,16.8,29.88,SW,219,0.0,3.0,76,0.00,,OVC049,0.00,VWS V13.01,2013-01-22 01:05:00,
2013-01-21 20:10:00,23.1,16.7,29.89,SW,215,0.0,3.0,76,0.00,,OVC049,0.00,VWS V13.01,2013-01-22 01:10:00,
2013-01-21 20:15:00,23.0,16.6,29.89,SW,215,0.0,3.0,76,0.00,,OVC049,0.00,VWS V13.01,2013-01-22 01:15:00,
2013-01-21 20:20:00,22.7,16.6,29.89,SW,215,0.0,3.0,77,0.00,,OVC049,0.00,VWS V13.01,2013-01-22 01:20:00,
2013-01-21 20:25:00,22.5,16.4,29.89,SW,215,0.0,3.0,77,0.00,,OVC049,0.00,VWS V13.01,2013-01-22 01:25:00,
2013-01-21 20:30:00,22.1,16.0,29.88,SW,215,0.0,0.0,77,0.00,,OVC049,0.00,VWS V13.01,2013-01-22 01:30:00,
2013-01-21 20:35:00,21.8,15.7,29.88,SW,215,0.0,0.0,77,0.00,,OVC049,0.00,VWS V13.01,2013-01-22 01:35:00,
2013-01-21 20:40:00,21.3,15.5,29.89,SW,215,0.0,0.0,78,0.00,,OVC049,0.00,VWS V13.01,2013-01-22 01:40:00,
2013-01-21 20:45:00,20.9,15.1,29.88,SW,215,0.0,0.0,78,0.00,,OVC049,0.00,VWS V13.01,2013-01-22 01:45:00,
2013-01-21 20:50:00,20.5,15.0,29.89,SW,215,0.0,0.0,79,0.00,,OVC049,0.00,VWS V13.01,2013-01-22 01:50:00,
2013-01-21 20:55:00,19.9,14.4,29.89,SW,215,0.0,0.0,79,0.00,,OVC049,0.00,VWS V13.01,2013-01-22 01:55:00,
2013-01-21 21:00:00,19.6,14.2,29.89,SW,215,0.0,0.0,79,0.00,,OVC049,0.00,VWS V13.01,2013-01-22 02:00:00,
2013-01-21 21:05:00,19.3,14.1,29.89,SW,215,0.0,0.0,80,0.00,,OVC049,0.00,VWS V13.01,2013-01-22 02:05:00,
2013-01-21 21:10:00,19.2,14.3,29.88,SW,215,0.0,0.0,81,0.00,,OVC049,0.00,VWS V13.01,2013-01-22 02:10:00,
2013-01-21 21:15:00,19.1,14.2,29.88,SW,215,0.0,0.0,81,0.00,,OVC049,0.00,VWS V13.01,2013-01-22 02:15:00,
2013-01-21 21:20:00,19.1,14.2,29.88,SW,215,0.0,0.0,81,0.00,,OVC049,0.00,VWS V13.01,2013-01-22 02:20:00,
2013-01-21 21:25:00,19.0,14.1,29.89,SW,215,0.0,1.0,81,0.00,,OVC049,0.00,VWS V13.01,2013-01-22 02:25:00,
2013-01-21 21:30:00,19.1,14.5,29.89,SW,215,0.0,0.0,82,0.00,,OVC049,0.00,VWS V13.01,2013-01-22 02:30:00,
2013-01-21 21:35:00,19.2,14.3,29.88,SW,215,0.0,0.0,81,0.00,,OVC049,0.00,VWS V13.01,2013-01-22 02:35:00,
2013-01-21 21:40:00,19.1,14.2,29.88,SW,215,0.0,0.0,81,0.00,,OVC049,0.00,VWS V13.01,2013-01-22 02:40:00,
2013-01-21 21:45:00,19.1,14.0,29.88,SW,215,0.0,0.0,80,0.00,,OVC049,0.00,VWS V13.01,2013-01-22 02:45:00,
2013-01-21 21:50:00,18.9,13.8,29.88,WSW,246,0.0,3.0,80,0.00,,OVC049,0.00,VWS V13.01,2013-01-22 02:50:00,
2013-01-21 21:55:00,18.7,13.6,29.88,WSW,246,0.0,3.0,80,0.00,,OVC049,0.00,VWS V13.01,2013-01-22 02:55:00,
2013-01-21 22:00:00,18.7,13.6,29.88,SW,225,0.0,0.0,80,0.00,,OVC049,0.00,VWS V13.01,2013-01-22 03:00:00,
2013-01-21 22:05:00,18.8,13.1,29.88,SSW,209,0.0,3.0,78,0.00,,CLR,0.00,VWS V13.01,2013-01-22 03:05:00,
2013-01-21 22:10:00,18.8,12.8,29.88,SW,220,2.0,3.0,77,0.00,,CLR,0.00,VWS V13.01,2013-01-22 03:10:00,
2013-01-21 22:15:00,18.9,12.6,29.88,SSW,213,0.0,5.0,76,0.00,,CLR,0.00,VWS V13.01,2013-01-22 03:15:00,
2013-01-21 22:20:00,19.0,12.1,29.88,SW,224,1.0,5.0,74,0.00,,CLR,0.00,VWS V13.01,2013-01-22 03:20:00,
2013-01-21 22:25:00,19.3,11.4,29.88,SSW,211,0.0,6.0,71,0.00,,CLR,0.00,VWS V13.01,2013-01-22 03:25:00,
2013-01-21 22:30:00,19.5,11.0,29.87,SW,221,0.0,2.0,69,0.00,,CLR,0.00,VWS V13.01,2013-01-22 03:30:00,
2013-01-21 22:35:00,19.5,10.3,29.88,SW,232,3.0,8.0,67,0.00,,CLR,0.00,VWS V13.01,2013-01-22 03:35:00,
2013-01-21 22:40:00,19.5,10.7,29.88,SSW,201,4.0,8.0,68,0.00,,CLR,0.00,VWS V13.01,2013-01-22 03:40:00,
2013-01-21 22:45:00,19.6,8.7,29.88,SSW,210,4.0,14.0,62,0.00,,CLR,0.00,VWS V13.01,2013-01-22 03:45:00,
2013-01-21 22:50:00,19.7,9.2,29.88,WSW,240,5.0,14.0,63,0.00,,CLR,0.00,VWS V13.01,2013-01-22 03:50:00,
2013-01-21 22:55:00,19.8,8.9,29.88,WSW,252,5.0,14.0,62,0.00,,CLR,0.00,VWS V13.01,2013-01-22 03:55:00,
2013-01-21 23:00:00,19.7,8.8,29.88,WSW,239,2.0,5.0,62,0.00,,CLR,0.00,VWS V13.01,2013-01-22 04:00:00,
2013-01-21 23:05:00,19.6,9.4,29.88,SSW,197,0.0,5.0,64,0.00,,BKN055,0.00,VWS V13.01,2013-01-22 04:05:00,
2013-01-21 23:10:00,19.5,9.3,29.88,SSW,208,3.0,8.0,64,0.00,,BKN055,0.00,VWS V13.01,2013-01-22 04:10:00,
2013-01-21 23:15:00,19.5,9.7,29.88,SSW,206,3.0,8.0,65,0.00,,BKN055,0.00,VWS V13.01,2013-01-22 04:15:00,
2013-01-21 23:20:00,19.4,9.6,29.88,South,170,10.0,16.0,65,0.00,,BKN055,0.00,VWS V13.01,2013-01-22 04:20:00,
2013-01-21 23:25:00,19.4,9.2,29.89,South,190,3.0,16.0,64,0.00,,BKN055,0.00,VWS V13.01,2013-01-22 04:25:00,
2013-01-21 23:30:00,19.3,9.8,29.89,SSW,208,5.0,7.0,66,0.00,,BKN055,0.00,VWS V13.01,2013-01-22 04:30:00,
2013-01-21 23:35:00,19.3,8.1,29.89,SW,234,1.0,7.0,61,0.00,,BKN055,0.00,VWS V13.01,2013-01-22 04:35:00,
2013-01-21 23:40:00,19.2,6.5,29.89,SSW,192,2.0,14.0,57,0.00,,BKN055,0.00,VWS V13.01,2013-01-22 04:40:00,
2013-01-21 23:45:00,19.1,6.8,29.89,West,263,1.0,14.0,58,0.00,,BKN055,0.00,VWS V13.01,2013-01-22 04:45:00,
2013-01-21 23:50:00,19.1,6.0,29.88,SW,219,4.0,14.0,56,0.00,,BKN055,0.00,VWS V13.01,2013-01-22 04:50:00,
2013-01-21 23:55:00,19.2,6.9,29.89,South,191,0.0,14.0,58,0.00,,BKN055,0.00,VWS V13.01,2013-01-22 04:55:00,